Starlink 11385

operational
NORAD ID: 62014 Int'l Des: 2024-213 Owner: SPXS Country: US Constellation: starlink
LEOCIRCULAR

Über Starlink 11385

Beschreibung wird geladen...

Live-Position

3D-Globus wird geladen...

Nächste Überflüge

Höhenverlauf

Altitude vs Time

uPlot chart will show altitude changes over time

Zweizeiliger Elementsatz

1 62014U 24213G 25353.66220338 .00178749 00000-0 14472-2 0 9999
2 62014 53.1577 75.9418 0001264 65.7646 294.3504 15.69735710 62340
Epoch: 19. Dez. 2025 • Age: 9 hours

Aktueller Status

Höhe 361.2 km
Geschwindigkeit 7.70 km/s
Subsatellitenpunkt 35.79°N, 1.27°W
Startdatum 18. Nov. 2024
Alter 1 years
Typ internet

Technische Details

Klassifizierung Payload
Masse 960.00 kg
Trockenmasse 910.00 kg
Gesamtmasse 960.00 kg
Länge 0.30 m
Durchmesser 4.10 m
Spannweite 29.00 m
Form Box + pan
Hersteller SPXS
Bus-Typ Starlink V2MD
Phasenstatus In Orbit
Besitzer/Staat SPXS/US

Große Konstellationen

Loading constellations...